Location: Brompton
(51.4000°N, 0.5333°E)
Time: 11:30:14
(UTC+00:00)

Cosmos 1898 Rocket - Pass Details

Date: 26 September 2021
Orbit: 752 x 784 km, 74.0° (Epoch: 17 October)

Event Time Altitude Azimuth Distance (km) Brightness Sun altitude
Rises 04:17:11 0° 339° (NNW) 3,263 6.7 -15.2°
Reaches altitude 10° 04:20:11 10° 356° (N) 2,338 6.2 -14.7°
Maximum altitude 04:24:08 21° 44° (NE) 1,716 6.1 -14.1°
Drops below altitude 10° 04:28:06 10° 92° (E) 2,341 7.3 -13.5°
Sets 04:31:05 0° 109° (ESE) 3,268 7.8 -13.1°
